Regional Weather Roundup
Issued by NWS

Home | Current Version | Previous Version | Text Only | Print | Product List | Glossary On
Versions: 1 2 3 4 5 6 7 8 9 10 11 12 13 14 15 16 17 18 19 20 21 22 23 24 25 26 27 28
000
ASUS45 KREV 051310
RWRNV
NEVADA REGIONAL WEATHER ROUNDUP
NATIONAL WEATHER SERVICE RENO NV
600 AM PDT THU MAY 05 2016

NOTE: "FAIR" INDICATES FEW OR NO CLOUDS BELOW 12,000 FEET WITH NO
SIGNIFICANT WEATHER AND/OR OBSTRUCTIONS TO VISIBILITY.

NVZ001-003-004-051400-
WESTERN NEVADA

CITY           SKY/WX    TMP DP  RH WIND       PRES   REMARKS
RENO           CLOUDY    53  44  71 N6        29.87S
CARSON CITY    MOCLDY    55  37  50 NW8       29.85F
MINDEN         CLOUDY    46  41  81 S6        29.87S
PYRAMID LAKE     N/A     57 N/A N/A S7          N/A
FALLON         CLOUDY    58  35  42 NW9       29.80S
LOVELOCK       CLOUDY    58  38  47 NE15      29.80F
$$

NVZ002-CAZ072-073-051400-
NORTHERN AND CENTRAL SIERRA

CITY           SKY/WX    TMP DP  RH WIND       PRES   REMARKS
S. LAKE TAHOE  CLOUDY    40  35  83 CALM      29.90F
TRUCKEE        CLOUDY    37  37 100 CALM      29.92S
SQUAW VLY 8000   N/A     37  34  87 SW3         N/A
BLUE CANYON    CLOUDY    50  42  74 CALM      29.89S
MAMMOTH LAKES  FAIR      33  32  97 CALM      29.92S
BRIDGEPORT     FAIR      39  31  72 CALM      29.89F
$$

NVZ030-031-036-051400-
NORTHERN NEVADA

CITY           SKY/WX    TMP DP  RH WIND       PRES   REMARKS
ELKO           CLOUDY    50  38  63 NE6       29.90F
WINNEMUCCA     MOCLDY    43  36  76 N7        29.87S
WENDOVER       CLOUDY    54  39  58 S6        29.91R
$$

NVZ035-037-051400-
CENTRAL NEVADA

CITY           SKY/WX    TMP DP  RH WIND       PRES   REMARKS
ELY            MOCLDY    37  28  70 SE6       29.98F
EUREKA           N/A     39  30  70 NE5       29.93R
$$

NVZ013-014-051400-
SOUTH CENTRAL NEVADA

CITY           SKY/WX    TMP DP  RH WIND       PRES   REMARKS
TONOPAH        CLOUDY    47  26  44 CALM      29.87F
$$

NVZ017-020-022-051400-
SOUTHERN NEVADA

CITY           SKY/WX    TMP DP  RH WIND       PRES   REMARKS
LAS VEGAS      MOCLDY    70  33  25 CALM      29.76R
N. LAS VEGAS   PTCLDY    67  36  31 CALM      29.79R
NELLIS AFB     PTCLDY    70  34  26 SE9       29.78R
HENDERSON      PTCLDY    68  34  28 S9        29.83R
MERCURY        MOCLDY    58  38  47 E5        29.79S
$$




USA.gov is the U.S. government's official web portal to all federal, state and local government web resources and services.